Time,TemperatureF,DewpointF,PressureIn,WindDirection,WindDirectionDegrees,WindSpeedMPH,WindSpeedGustMPH,Humidity,HourlyPrecipIn,Conditions,Clouds,dailyrainin,SoftwareType,DateUTC
2013-01-06 00:04:00,36.0,30.7,30.11,North,0,0.0,0.0,81,0.00,,,0.00,WUHU21623XXSP,2013-01-06 06:04:00,
2013-01-06 00:09:00,35.4,30.1,30.11,North,0,0.0,0.0,81,0.00,,,0.00,WUHU21623XXSP,2013-01-06 06:09:00,
2013-01-06 00:14:00,35.4,30.1,30.11,North,0,0.0,0.0,81,0.00,,,0.00,WUHU21623XXSP,2013-01-06 06:14:00,
2013-01-06 00:19:00,35.4,30.1,30.11,North,0,0.0,0.0,81,0.00,,,0.00,WUHU21623XXSP,2013-01-06 06:19:00,
2013-01-06 00:24:00,35.2,29.9,30.11,North,0,0.0,0.0,81,0.00,,,0.00,WUHU21623XXSP,2013-01-06 06:24:00,
2013-01-06 00:29:00,34.9,29.6,30.11,North,0,0.0,0.0,81,0.00,,,0.00,WUHU21623XXSP,2013-01-06 06:29:00,
2013-01-06 00:34:00,34.9,29.6,30.11,North,0,0.0,0.0,81,0.00,,,0.00,WUHU21623XXSP,2013-01-06 06:34:00,
2013-01-06 00:39:00,34.7,29.4,30.11,North,0,0.0,0.0,81,0.00,,,0.00,WUHU21623XXSP,2013-01-06 06:39:00,
2013-01-06 00:44:00,34.3,29.0,30.11,North,0,0.0,0.0,81,0.00,,,0.00,WUHU21623XXSP,2013-01-06 06:44:00,
2013-01-06 00:49:00,34.3,29.0,30.12,North,0,0.0,0.0,81,0.00,,,0.00,WUHU21623XXSP,2013-01-06 06:49:00,
2013-01-06 00:54:00,34.3,29.0,30.11,North,0,0.0,0.0,81,0.00,,,0.00,WUHU21623XXSP,2013-01-06 06:54:00,
2013-01-06 00:59:00,34.2,28.9,30.11,North,0,0.0,0.0,81,0.00,,,0.00,WUHU21623XXSP,2013-01-06 06:59:00,
2013-01-06 01:04:00,34.0,28.7,30.12,North,0,0.0,0.0,81,0.00,,,0.00,WUHU21623XXSP,2013-01-06 07:04:00,
2013-01-06 01:09:00,33.8,28.7,30.12,North,0,0.0,0.0,81,0.00,,,0.00,WUHU21623XXSP,2013-01-06 07:09:00,
2013-01-06 01:14:00,33.8,28.5,30.11,North,0,0.0,0.0,81,0.00,,,0.00,WUHU21623XXSP,2013-01-06 07:14:00,
2013-01-06 01:19:00,33.8,28.5,30.11,North,0,0.0,0.0,81,0.00,,,0.00,WUHU21623XXSP,2013-01-06 07:19:00,
2013-01-06 01:24:00,33.6,28.3,30.12,North,0,0.0,0.0,81,0.00,,,0.00,WUHU21623XXSP,2013-01-06 07:24:00,
2013-01-06 01:29:00,33.3,28.0,30.12,North,0,0.0,0.0,81,0.00,,,0.00,WUHU21623XXSP,2013-01-06 07:29:00,
2013-01-06 01:34:00,33.3,27.7,30.12,North,0,0.0,0.0,80,0.00,,,0.00,WUHU21623XXSP,2013-01-06 07:34:00,
2013-01-06 01:39:00,32.9,27.4,30.12,North,0,0.0,0.0,80,0.00,,,0.00,WUHU21623XXSP,2013-01-06 07:39:00,
2013-01-06 01:44:00,32.7,27.2,30.13,North,0,0.0,0.0,80,0.00,,,0.00,WUHU21623XXSP,2013-01-06 07:44:00,
2013-01-06 01:50:00,32.5,27.2,30.13,North,0,0.0,0.0,80,0.00,,,0.00,WUHU21623XXSP,2013-01-06 07:50:00,
2013-01-06 01:55:00,32.5,27.1,30.13,North,0,0.0,0.0,80,0.00,,,0.00,WUHU21623XXSP,2013-01-06 07:55:00,
2013-01-06 02:00:00,32.4,26.9,30.13,North,0,0.0,0.0,80,0.00,,,0.00,WUHU21623XXSP,2013-01-06 08:00:00,
2013-01-06 02:05:00,32.2,26.8,30.13,North,0,0.0,0.0,80,0.00,,,0.00,WUHU21623XXSP,2013-01-06 08:05:00,
2013-01-06 02:10:00,31.8,26.6,30.13,North,0,0.0,0.0,80,0.00,,,0.00,WUHU21623XXSP,2013-01-06 08:10:00,
2013-01-06 02:15:00,31.8,26.4,30.13,North,0,0.0,0.0,80,0.00,,,0.00,WUHU21623XXSP,2013-01-06 08:15:00,
2013-01-06 02:20:00,31.6,26.2,30.13,North,0,0.0,0.0,80,0.00,,,0.00,WUHU21623XXSP,2013-01-06 08:20:00,
2013-01-06 02:25:00,31.6,26.2,30.13,North,0,0.0,0.0,80,0.00,,,0.00,WUHU21623XXSP,2013-01-06 08:25:00,
2013-01-06 02:30:00,31.3,25.9,30.13,North,0,0.0,0.0,80,0.00,,,0.00,WUHU21623XXSP,2013-01-06 08:30:00,
2013-01-06 02:35:00,31.1,25.7,30.13,North,0,0.0,0.0,80,0.00,,,0.00,WUHU21623XXSP,2013-01-06 08:35:00,
2013-01-06 02:40:00,31.1,26.0,30.14,North,0,0.0,0.0,81,0.00,,,0.00,WUHU21623XXSP,2013-01-06 08:40:00,
2013-01-06 02:45:00,30.9,25.8,30.14,North,0,0.0,0.0,81,0.00,,,0.00,WUHU21623XXSP,2013-01-06 08:45:00,
2013-01-06 02:50:00,30.7,25.6,30.14,North,0,0.0,0.0,81,0.00,,,0.00,WUHU21623XXSP,2013-01-06 08:50:00,
2013-01-06 02:55:00,30.6,25.4,30.14,North,0,0.0,0.0,81,0.00,,,0.00,WUHU21623XXSP,2013-01-06 08:55:00,
2013-01-06 03:00:00,30.6,25.4,30.14,North,0,0.0,0.0,81,0.00,,,0.00,WUHU21623XXSP,2013-01-06 09:00:00,
2013-01-06 03:05:00,30.4,25.3,30.14,North,0,0.0,0.0,81,0.00,,,0.00,WUHU21623XXSP,2013-01-06 09:05:00,
2013-01-06 03:10:00,30.4,25.3,30.14,North,0,0.0,0.0,81,0.00,,,0.00,WUHU21623XXSP,2013-01-06 09:10:00,
2013-01-06 03:15:00,30.4,25.3,30.14,North,0,0.0,0.0,81,0.00,,,0.00,WUHU21623XXSP,2013-01-06 09:15:00,
2013-01-06 03:20:00,30.4,25.3,30.14,North,0,0.0,0.0,81,0.00,,,0.00,WUHU21623XXSP,2013-01-06 09:20:00,
2013-01-06 03:25:00,30.4,25.3,30.14,North,0,0.0,0.0,81,0.00,,,0.00,WUHU21623XXSP,2013-01-06 09:25:00,
2013-01-06 03:30:00,30.2,25.1,30.14,North,0,0.0,0.0,81,0.00,,,0.00,WUHU21623XXSP,2013-01-06 09:30:00,
2013-01-06 03:35:00,30.0,25.1,30.14,North,0,0.0,0.0,81,0.00,,,0.00,WUHU21623XXSP,2013-01-06 09:35:00,
2013-01-06 03:40:00,30.2,24.9,30.14,North,0,0.0,0.0,81,0.00,,,0.00,WUHU21623XXSP,2013-01-06 09:40:00,
2013-01-06 03:45:00,30.2,24.9,30.15,North,0,0.0,0.0,81,0.00,,,0.00,WUHU21623XXSP,2013-01-06 09:45:00,
2013-01-06 03:50:00,30.4,25.1,30.14,North,0,0.0,0.0,81,0.00,,,0.00,WUHU21623XXSP,2013-01-06 09:50:00,
2013-01-06 03:55:00,30.4,25.3,30.14,North,0,0.0,0.0,81,0.00,,,0.00,WUHU21623XXSP,2013-01-06 09:55:00,
2013-01-06 04:00:00,30.4,25.0,30.15,North,0,0.0,0.0,80,0.00,,,0.00,WUHU21623XXSP,2013-01-06 10:00:00,
2013-01-06 04:05:00,30.4,25.0,30.15,North,0,0.0,0.0,80,0.00,,,0.00,WUHU21623XXSP,2013-01-06 10:05:00,
2013-01-06 04:10:00,30.4,25.0,30.15,North,0,0.0,0.0,80,0.00,,,0.00,WUHU21623XXSP,2013-01-06 10:10:00,
2013-01-06 04:15:00,30.2,24.5,30.15,North,0,0.0,0.0,79,0.00,,,0.00,WUHU21623XXSP,2013-01-06 10:15:00,
2013-01-06 04:20:00,30.2,24.5,30.16,North,0,0.0,0.0,79,0.00,,,0.00,WUHU21623XXSP,2013-01-06 10:20:00,
2013-01-06 04:25:00,30.0,24.3,30.16,North,0,0.0,0.0,79,0.00,,,0.00,WUHU21623XXSP,2013-01-06 10:25:00,
2013-01-06 04:30:00,30.0,24.3,30.16,North,0,0.0,0.0,79,0.00,,,0.00,WUHU21623XXSP,2013-01-06 10:30:00,
2013-01-06 04:35:00,30.0,24.3,30.16,North,0,0.0,0.0,79,0.00,,,0.00,WUHU21623XXSP,2013-01-06 10:35:00,
2013-01-06 04:40:00,30.0,24.3,30.17,North,0,0.0,0.0,79,0.00,,,0.00,WUHU21623XXSP,2013-01-06 10:40:00,
2013-01-06 04:45:00,29.8,23.8,30.17,North,0,0.0,0.0,78,0.00,,,0.00,WUHU21623XXSP,2013-01-06 10:45:00,
2013-01-06 04:50:00,29.8,23.8,30.17,North,0,0.0,0.0,78,0.00,,,0.00,WUHU21623XXSP,2013-01-06 10:50:00,
2013-01-06 04:55:00,29.8,23.8,30.17,North,0,0.0,0.0,78,0.00,,,0.00,WUHU21623XXSP,2013-01-06 10:55:00,
2013-01-06 05:00:00,29.7,23.6,30.17,North,0,0.0,0.0,78,0.00,,,0.00,WUHU21623XXSP,2013-01-06 11:00:00,
2013-01-06 05:05:00,29.7,23.6,30.18,North,0,0.0,0.0,78,0.00,,,0.00,WUHU21623XXSP,2013-01-06 11:05:00,
2013-01-06 05:10:00,29.7,23.3,30.18,North,0,0.0,0.0,77,0.00,,,0.00,WUHU21623XXSP,2013-01-06 11:10:00,
2013-01-06 05:15:00,29.5,23.1,30.18,North,0,0.0,0.0,77,0.00,,,0.00,WUHU21623XXSP,2013-01-06 11:15:00,
2013-01-06 05:20:00,29.5,22.8,30.18,North,0,0.0,0.0,76,0.00,,,0.00,WUHU21623XXSP,2013-01-06 11:20:00,
2013-01-06 05:25:00,29.5,22.8,30.18,North,0,0.0,0.0,76,0.00,,,0.00,WUHU21623XXSP,2013-01-06 11:25:00,
2013-01-06 05:30:00,29.7,23.0,30.18,North,0,0.0,0.0,76,0.00,,,0.00,WUHU21623XXSP,2013-01-06 11:30:00,
2013-01-06 05:35:00,29.7,23.0,30.19,North,0,0.0,0.0,76,0.00,,,0.00,WUHU21623XXSP,2013-01-06 11:35:00,
2013-01-06 05:40:00,29.7,23.0,30.19,North,0,0.0,0.0,76,0.00,,,0.00,WUHU21623XXSP,2013-01-06 11:40:00,
2013-01-06 05:45:00,29.7,23.0,30.19,North,0,0.0,0.0,76,0.00,,,0.00,WUHU21623XXSP,2013-01-06 11:45:00,
2013-01-06 05:50:00,29.7,23.0,30.20,North,0,0.0,0.0,76,0.00,,,0.00,WUHU21623XXSP,2013-01-06 11:50:00,
2013-01-06 05:55:00,29.7,23.0,30.20,North,0,0.0,0.0,76,0.00,,,0.00,WUHU21623XXSP,2013-01-06 11:55:00,
2013-01-06 06:00:00,29.7,23.0,30.20,North,0,0.0,0.0,76,0.00,,,0.00,WUHU21623XXSP,2013-01-06 12:00:00,
2013-01-06 06:05:00,29.7,23.0,30.20,North,0,0.0,0.0,76,0.00,,,0.00,WUHU21623XXSP,2013-01-06 12:05:00,
2013-01-06 06:10:00,29.7,23.0,30.21,North,0,0.0,0.0,76,0.00,,,0.00,WUHU21623XXSP,2013-01-06 12:10:00,
2013-01-06 06:15:00,29.7,23.0,30.21,North,0,0.0,0.0,76,0.00,,,0.00,WUHU21623XXSP,2013-01-06 12:15:00,
2013-01-06 06:20:00,29.7,23.0,30.21,North,0,0.0,0.0,76,0.00,,,0.00,WUHU21623XXSP,2013-01-06 12:20:00,
2013-01-06 06:25:00,29.7,23.0,30.21,North,0,0.0,0.0,76,0.00,,,0.00,WUHU21623XXSP,2013-01-06 12:25:00,
2013-01-06 06:30:00,29.7,23.0,30.22,North,0,0.0,0.0,76,0.00,,,0.00,WUHU21623XXSP,2013-01-06 12:30:00,
2013-01-06 06:35:00,29.5,22.8,30.22,North,0,0.0,0.0,76,0.00,,,0.00,WUHU21623XXSP,2013-01-06 12:35:00,
2013-01-06 06:40:00,29.5,22.8,30.23,North,0,0.0,0.0,76,0.00,,,0.00,WUHU21623XXSP,2013-01-06 12:40:00,
2013-01-06 06:45:00,29.5,22.8,30.23,North,0,0.0,0.0,76,0.00,,,0.00,WUHU21623XXSP,2013-01-06 12:45:00,
2013-01-06 06:50:00,29.5,23.1,30.23,North,0,0.0,0.0,77,0.00,,,0.00,WUHU21623XXSP,2013-01-06 12:50:00,
2013-01-06 06:55:00,29.5,23.1,30.23,North,0,0.0,0.0,77,0.00,,,0.00,WUHU21623XXSP,2013-01-06 12:55:00,
2013-01-06 07:00:00,29.5,23.1,30.23,North,0,0.0,0.0,77,0.00,,,0.00,WUHU21623XXSP,2013-01-06 13:00:00,
2013-01-06 07:05:00,29.5,23.1,30.23,North,0,0.0,0.0,77,0.00,,,0.00,WUHU21623XXSP,2013-01-06 13:05:00,
2013-01-06 07:10:00,29.3,22.9,30.23,North,0,0.0,0.0,77,0.00,,,0.00,WUHU21623XXSP,2013-01-06 13:10:00,
2013-01-06 07:15:00,29.3,22.9,30.23,North,0,0.0,0.0,77,0.00,,,0.00,WUHU21623XXSP,2013-01-06 13:15:00,
2013-01-06 07:20:00,29.1,22.8,30.24,North,0,0.0,0.0,77,0.00,,,0.00,WUHU21623XXSP,2013-01-06 13:20:00,
2013-01-06 07:25:00,29.1,22.8,30.24,North,0,0.0,0.0,77,0.00,,,0.00,WUHU21623XXSP,2013-01-06 13:25:00,
2013-01-06 07:30:00,29.1,23.1,30.23,North,0,0.0,0.0,78,0.00,,,0.00,WUHU21623XXSP,2013-01-06 13:30:00,
2013-01-06 07:35:00,29.1,23.1,30.24,North,0,0.0,0.0,78,0.00,,,0.00,WUHU21623XXSP,2013-01-06 13:35:00,
2013-01-06 07:40:00,29.1,23.1,30.24,North,0,0.0,0.0,78,0.00,,,0.00,WUHU21623XXSP,2013-01-06 13:40:00,
2013-01-06 07:45:00,28.8,22.9,30.24,North,0,0.0,0.0,77,0.00,,,0.00,WUHU21623XXSP,2013-01-06 13:45:00,
2013-01-06 07:50:00,28.8,22.4,30.25,North,0,0.0,0.0,77,0.00,,,0.00,WUHU21623XXSP,2013-01-06 13:50:00,
2013-01-06 07:55:00,28.6,22.2,30.25,North,0,0.0,0.0,77,0.00,,,0.00,WUHU21623XXSP,2013-01-06 13:55:00,
2013-01-06 08:00:00,28.2,21.9,30.26,North,0,0.0,0.0,77,0.00,,,0.00,WUHU21623XXSP,2013-01-06 14:00:00,
2013-01-06 08:05:00,28.2,21.9,30.26,North,0,0.0,0.0,77,0.00,,,0.00,WUHU21623XXSP,2013-01-06 14:05:00,
2013-01-06 08:10:00,28.0,21.7,30.26,North,0,0.0,0.0,77,0.00,,,0.00,WUHU21623XXSP,2013-01-06 14:10:00,
2013-01-06 08:15:00,28.0,21.7,30.27,North,0,0.0,0.0,77,0.00,,,0.00,WUHU21623XXSP,2013-01-06 14:15:00,
2013-01-06 08:20:00,28.0,21.7,30.27,North,0,0.0,0.0,77,0.00,,,0.00,WUHU21623XXSP,2013-01-06 14:20:00,
2013-01-06 08:25:00,28.0,22.0,30.27,North,0,0.0,0.0,78,0.00,,,0.00,WUHU21623XXSP,2013-01-06 14:25:00,
2013-01-06 08:30:00,28.0,22.0,30.28,North,0,0.0,0.0,78,0.00,,,0.00,WUHU21623XXSP,2013-01-06 14:30:00,
2013-01-06 08:35:00,28.2,22.2,30.28,North,0,0.0,0.0,78,0.00,,,0.00,WUHU21623XXSP,2013-01-06 14:35:00,
2013-01-06 08:40:00,28.2,22.2,30.28,North,0,0.0,0.0,78,0.00,,,0.00,WUHU21623XXSP,2013-01-06 14:40:00,
2013-01-06 08:45:00,28.2,22.2,30.28,North,0,0.0,0.0,78,0.00,,,0.00,WUHU21623XXSP,2013-01-06 14:45:00,
2013-01-06 08:50:00,28.6,22.2,30.28,North,0,0.0,0.0,78,0.00,,,0.00,WUHU21623XXSP,2013-01-06 14:50:00,
2013-01-06 08:55:00,28.6,22.5,30.28,North,0,0.0,0.0,77,0.00,,,0.00,WUHU21623XXSP,2013-01-06 14:55:00,
2013-01-06 09:00:00,28.2,21.9,30.29,North,0,0.0,0.0,77,0.00,,,0.00,WUHU21623XXSP,2013-01-06 15:00:00,
2013-01-06 09:05:00,28.0,21.7,30.29,North,0,0.0,0.0,77,0.00,,,0.00,WUHU21623XXSP,2013-01-06 15:05:00,
2013-01-06 09:10:00,27.7,21.4,30.30,North,0,0.0,0.0,77,0.00,,,0.00,WUHU21623XXSP,2013-01-06 15:10:00,
2013-01-06 09:15:00,27.5,21.2,30.31,North,0,0.0,0.0,77,0.00,,,0.00,WUHU21623XXSP,2013-01-06 15:15:00,
2013-01-06 09:20:00,27.3,21.0,30.31,North,0,0.0,0.0,77,0.00,,,0.00,WUHU21623XXSP,2013-01-06 15:20:00,
2013-01-06 09:25:00,27.1,21.0,30.31,North,0,0.0,0.0,77,0.00,,,0.00,WUHU21623XXSP,2013-01-06 15:25:00,
2013-01-06 09:30:00,27.1,20.8,30.31,North,0,0.0,0.0,77,0.00,,,0.00,WUHU21623XXSP,2013-01-06 15:30:00,
2013-01-06 09:35:00,27.1,20.8,30.32,North,0,0.0,0.0,77,0.00,,,0.00,WUHU21623XXSP,2013-01-06 15:35:00,
2013-01-06 09:40:00,27.1,20.8,30.32,North,0,0.0,0.0,77,0.00,,,0.00,WUHU21623XXSP,2013-01-06 15:40:00,
2013-01-06 09:45:00,27.1,20.8,30.32,North,0,0.0,0.0,77,0.00,,,0.00,WUHU21623XXSP,2013-01-06 15:45:00,
2013-01-06 09:50:00,27.1,20.5,30.32,North,0,0.0,0.0,76,0.00,,,0.00,WUHU21623XXSP,2013-01-06 15:50:00,
2013-01-06 09:55:00,27.3,20.5,30.33,North,0,0.0,0.0,76,0.00,,,0.00,WUHU21623XXSP,2013-01-06 15:55:00,
2013-01-06 10:00:00,27.0,20.3,30.33,North,0,0.0,0.0,76,0.00,,,0.00,WUHU21623XXSP,2013-01-06 16:00:00,
2013-01-06 10:05:00,27.0,20.3,30.33,North,0,0.0,0.0,76,0.00,,,0.00,WUHU21623XXSP,2013-01-06 16:05:00,
2013-01-06 10:10:00,27.1,20.5,30.33,North,0,0.0,0.0,76,0.00,,,0.00,WUHU21623XXSP,2013-01-06 16:10:00,
2013-01-06 10:16:00,27.3,20.4,30.33,North,0,0.0,0.0,75,0.00,,,0.00,WUHU21623XXSP,2013-01-06 16:16:00,
2013-01-06 10:21:00,27.7,20.8,30.33,North,0,0.0,0.0,75,0.00,,,0.00,WUHU21623XXSP,2013-01-06 16:21:00,
2013-01-06 10:26:00,27.7,20.4,30.34,North,0,0.0,0.0,74,0.00,,,0.00,WUHU21623XXSP,2013-01-06 16:26:00,
2013-01-06 10:31:00,27.7,20.4,30.34,North,0,0.0,0.0,74,0.00,,,0.00,WUHU21623XXSP,2013-01-06 16:31:00,
2013-01-06 10:36:00,27.7,20.1,30.34,North,0,0.0,0.0,73,0.00,,,0.00,WUHU21623XXSP,2013-01-06 16:36:00,
2013-01-06 10:41:00,28.0,20.5,30.34,North,0,0.0,0.0,73,0.00,,,0.00,WUHU21623XXSP,2013-01-06 16:41:00,
2013-01-06 10:46:00,28.2,20.7,30.34,North,0,0.0,0.0,73,0.00,,,0.00,WUHU21623XXSP,2013-01-06 16:46:00,
2013-01-06 10:51:00,28.4,20.7,30.34,North,0,0.0,0.0,72,0.00,,,0.00,WUHU21623XXSP,2013-01-06 16:51:00,
2013-01-06 10:56:00,28.6,20.7,30.34,North,0,0.0,0.0,72,0.00,,,0.00,WUHU21623XXSP,2013-01-06 16:56:00,
2013-01-06 11:01:00,28.6,20.7,30.34,North,0,0.0,0.0,72,0.00,,,0.00,WUHU21623XXSP,2013-01-06 17:01:00,
2013-01-06 11:06:00,28.8,20.7,30.34,North,0,0.0,0.0,72,0.00,,,0.00,WUHU21623XXSP,2013-01-06 17:06:00,
2013-01-06 11:11:00,29.1,21.0,30.34,North,0,0.0,0.0,72,0.00,,,0.00,WUHU21623XXSP,2013-01-06 17:11:00,
2013-01-06 11:16:00,29.7,21.4,30.33,North,0,0.0,0.0,71,0.00,,,0.00,WUHU21623XXSP,2013-01-06 17:16:00,
2013-01-06 11:21:00,30.0,21.7,30.34,North,0,0.0,0.0,71,0.00,,,0.00,WUHU21623XXSP,2013-01-06 17:21:00,
2013-01-06 11:26:00,30.0,21.7,30.33,North,0,0.0,0.0,71,0.00,,,0.00,WUHU21623XXSP,2013-01-06 17:26:00,
2013-01-06 11:31:00,30.4,22.1,30.33,North,0,0.0,0.0,71,0.00,,,0.00,WUHU21623XXSP,2013-01-06 17:31:00,
2013-01-06 11:36:00,30.4,21.7,30.33,North,0,0.0,0.0,70,0.00,,,0.00,WUHU21623XXSP,2013-01-06 17:36:00,
2013-01-06 11:41:00,30.4,21.4,30.33,North,0,0.0,0.0,69,0.00,,,0.00,WUHU21623XXSP,2013-01-06 17:41:00,
2013-01-06 11:46:00,30.7,21.7,30.32,North,0,0.0,0.0,70,0.00,,,0.00,WUHU21623XXSP,2013-01-06 17:46:00,
2013-01-06 11:51:00,30.9,22.3,30.32,North,0,0.0,0.0,70,0.00,,,0.00,WUHU21623XXSP,2013-01-06 17:51:00,
2013-01-06 11:56:00,31.3,22.6,30.31,North,0,0.0,0.0,70,0.00,,,0.00,WUHU21623XXSP,2013-01-06 17:56:00,
2013-01-06 12:01:00,31.6,22.6,30.31,North,0,0.0,0.0,69,0.00,,,0.00,WUHU21623XXSP,2013-01-06 18:01:00,
2013-01-06 12:06:00,31.8,22.8,30.31,North,0,0.0,0.0,70,0.00,,,0.00,WUHU21623XXSP,2013-01-06 18:06:00,
2013-01-06 12:11:00,31.8,22.8,30.31,North,0,0.0,0.0,69,0.00,,,0.00,WUHU21623XXSP,2013-01-06 18:11:00,
2013-01-06 12:16:00,32.0,22.8,30.31,North,0,0.0,0.0,69,0.00,,,0.00,WUHU21623XXSP,2013-01-06 18:16:00,
2013-01-06 12:21:00,32.2,23.2,30.31,North,0,0.0,0.0,69,0.00,,,0.00,WUHU21623XXSP,2013-01-06 18:21:00,
2013-01-06 12:26:00,32.4,23.3,30.31,North,0,0.0,0.0,69,0.00,,,0.00,WUHU21623XXSP,2013-01-06 18:26:00,
2013-01-06 12:31:00,32.7,23.1,30.31,North,0,0.0,0.0,69,0.00,,,0.00,WUHU21623XXSP,2013-01-06 18:31:00,
2013-01-06 12:36:00,32.9,23.4,30.31,North,0,0.0,0.0,68,0.00,,,0.00,WUHU21623XXSP,2013-01-06 18:36:00,
2013-01-06 12:41:00,33.4,23.9,30.32,North,0,0.0,0.0,68,0.00,,,0.00,WUHU21623XXSP,2013-01-06 18:41:00,
2013-01-06 12:46:00,33.4,23.8,30.32,North,0,0.0,0.0,68,0.00,,,0.00,WUHU21623XXSP,2013-01-06 18:46:00,
2013-01-06 12:51:00,33.3,23.8,30.31,North,0,0.0,0.0,68,0.00,,,0.00,WUHU21623XXSP,2013-01-06 18:51:00,
2013-01-06 12:56:00,33.4,23.6,30.31,North,0,0.0,0.0,67,0.00,,,0.00,WUHU21623XXSP,2013-01-06 18:56:00,
2013-01-06 13:01:00,33.4,23.6,30.31,North,0,0.0,0.0,67,0.00,,,0.00,WUHU21623XXSP,2013-01-06 19:01:00,
2013-01-06 13:06:00,33.6,23.6,30.31,North,0,0.0,0.0,67,0.00,,,0.00,WUHU21623XXSP,2013-01-06 19:06:00,
2013-01-06 13:11:00,34.0,23.9,30.31,North,0,0.0,0.0,67,0.00,,,0.00,WUHU21623XXSP,2013-01-06 19:11:00,
2013-01-06 13:16:00,34.3,24.4,30.32,North,0,0.0,0.0,67,0.00,,,0.00,WUHU21623XXSP,2013-01-06 19:16:00,
2013-01-06 13:21:00,34.3,24.1,30.32,North,0,0.0,0.0,66,0.00,,,0.00,WUHU21623XXSP,2013-01-06 19:21:00,
2013-01-06 13:26:00,34.3,24.1,30.32,North,0,0.0,0.0,66,0.00,,,0.00,WUHU21623XXSP,2013-01-06 19:26:00,
2013-01-06 13:31:00,34.3,23.7,30.32,North,0,0.0,0.0,65,0.00,,,0.00,WUHU21623XXSP,2013-01-06 19:31:00,
2013-01-06 13:36:00,34.3,23.7,30.32,North,0,0.0,0.0,65,0.00,,,0.00,WUHU21623XXSP,2013-01-06 19:36:00,
2013-01-06 13:46:00,34.5,23.7,30.32,North,0,0.0,0.0,64,0.00,,,0.00,WUHU21623XXSP,2013-01-06 19:46:00,
2013-01-06 13:51:00,34.7,23.7,30.32,North,0,0.0,0.0,64,0.00,,,0.00,WUHU21623XXSP,2013-01-06 19:51:00,
2013-01-06 13:57:00,34.3,23.0,30.33,North,0,0.0,0.0,63,0.00,,,0.00,WUHU21623XXSP,2013-01-06 19:57:00,
2013-01-06 14:03:00,34.7,23.7,30.33,North,0,0.0,0.0,64,0.00,,,0.00,WUHU21623XXSP,2013-01-06 20:03:00,
2013-01-06 14:08:00,34.9,23.9,30.32,North,0,0.0,0.0,64,0.00,,,0.00,WUHU21623XXSP,2013-01-06 20:08:00,
2013-01-06 14:13:00,34.7,23.7,30.32,North,0,0.0,0.0,64,0.00,,,0.00,WUHU21623XXSP,2013-01-06 20:13:00,
2013-01-06 14:16:00,34.7,23.7,30.33,North,0,0.0,0.0,63,0.00,,,0.00,WUHU21623XXSP,2013-01-06 20:16:00,
2013-01-06 14:21:00,34.7,23.4,30.32,North,0,0.0,0.0,63,0.00,,,0.00,WUHU21623XXSP,2013-01-06 20:21:00,
2013-01-06 14:26:00,34.9,23.5,30.32,North,0,0.0,0.0,63,0.00,,,0.00,WUHU21623XXSP,2013-01-06 20:26:00,
2013-01-06 14:31:00,34.9,23.5,30.32,North,0,0.0,0.0,63,0.00,,,0.00,WUHU21623XXSP,2013-01-06 20:31:00,
2013-01-06 14:36:00,34.9,23.5,30.32,North,0,0.0,0.0,63,0.00,,,0.00,WUHU21623XXSP,2013-01-06 20:36:00,
2013-01-06 14:41:00,35.1,23.7,30.32,North,0,0.0,0.0,63,0.00,,,0.00,WUHU21623XXSP,2013-01-06 20:41:00,
2013-01-06 14:46:00,35.2,23.7,30.32,North,0,0.0,0.0,62,0.00,,,0.00,WUHU21623XXSP,2013-01-06 20:46:00,
2013-01-06 14:51:00,34.9,23.2,30.33,North,0,0.0,0.0,62,0.00,,,0.00,WUHU21623XXSP,2013-01-06 20:51:00,
2013-01-06 14:56:00,34.9,23.2,30.33,North,0,0.0,0.0,62,0.00,,,0.00,WUHU21623XXSP,2013-01-06 20:56:00,
2013-01-06 15:01:00,34.9,23.2,30.33,North,0,0.0,0.0,62,0.00,,,0.00,WUHU21623XXSP,2013-01-06 21:01:00,
2013-01-06 15:06:00,34.9,23.2,30.33,North,0,0.0,0.0,62,0.00,,,0.00,WUHU21623XXSP,2013-01-06 21:06:00,
2013-01-06 15:08:00,34.9,23.2,30.33,North,0,0.0,0.0,62,0.00,,,0.00,WUHU21623XXSP,2013-01-06 21:08:00,
2013-01-06 15:13:00,35.1,23.4,30.33,North,0,0.0,0.0,62,0.00,,,0.00,WUHU21623XXSP,2013-01-06 21:13:00,
2013-01-06 15:18:00,35.1,23.4,30.33,North,0,0.0,0.0,62,0.00,,,0.00,WUHU21623XXSP,2013-01-06 21:18:00,
2013-01-06 15:23:00,35.2,23.5,30.33,North,0,0.0,0.0,62,0.00,,,0.00,WUHU21623XXSP,2013-01-06 21:23:00,
2013-01-06 15:28:00,35.2,23.5,30.33,North,0,0.0,0.0,62,0.00,,,0.00,WUHU21623XXSP,2013-01-06 21:28:00,
2013-01-06 15:33:00,35.2,23.5,30.33,North,0,0.0,0.0,62,0.00,,,0.00,WUHU21623XXSP,2013-01-06 21:33:00,
2013-01-06 15:38:00,35.2,23.2,30.33,North,0,0.0,0.0,61,0.00,,,0.00,WUHU21623XXSP,2013-01-06 21:38:00,
2013-01-06 15:43:00,34.9,22.8,30.33,North,0,0.0,0.0,61,0.00,,,0.00,WUHU21623XXSP,2013-01-06 21:43:00,
2013-01-06 15:48:00,34.9,22.8,30.34,North,0,0.0,0.0,61,0.00,,,0.00,WUHU21623XXSP,2013-01-06 21:48:00,
2013-01-06 15:53:00,34.7,22.6,30.33,North,0,0.0,0.0,61,0.00,,,0.00,WUHU21623XXSP,2013-01-06 21:53:00,
2013-01-06 15:58:00,34.5,22.5,30.34,North,0,0.0,0.0,61,0.00,,,0.00,WUHU21623XXSP,2013-01-06 21:58:00,
2013-01-06 16:03:00,34.3,22.3,30.34,North,0,0.0,0.0,61,0.00,,,0.00,WUHU21623XXSP,2013-01-06 22:03:00,
2013-01-06 16:08:00,34.3,22.6,30.33,North,0,0.0,0.0,62,0.00,,,0.00,WUHU21623XXSP,2013-01-06 22:08:00,
2013-01-06 16:14:00,34.3,22.6,30.34,North,0,0.0,0.0,62,0.00,,,0.00,WUHU21623XXSP,2013-01-06 22:14:00,
2013-01-06 16:19:00,34.2,22.5,30.34,North,0,0.0,0.0,62,0.00,,,0.00,WUHU21623XXSP,2013-01-06 22:19:00,
2013-01-06 16:24:00,34.0,22.3,30.34,North,0,0.0,0.0,62,0.00,,,0.00,WUHU21623XXSP,2013-01-06 22:24:00,
2013-01-06 16:29:00,33.8,22.3,30.34,North,0,0.0,0.0,62,0.00,,,0.00,WUHU21623XXSP,2013-01-06 22:29:00,
2013-01-06 16:34:00,33.6,22.3,30.34,North,0,0.0,0.0,63,0.00,,,0.00,WUHU21623XXSP,2013-01-06 22:34:00,
2013-01-06 16:39:00,33.1,21.5,30.34,North,0,0.0,0.0,62,0.00,,,0.00,WUHU21623XXSP,2013-01-06 22:39:00,
2013-01-06 16:44:00,32.7,21.3,30.34,North,0,0.0,0.0,63,0.00,,,0.00,WUHU21623XXSP,2013-01-06 22:44:00,
2013-01-06 16:49:00,32.5,21.3,30.35,North,0,0.0,0.0,63,0.00,,,0.00,WUHU21623XXSP,2013-01-06 22:49:00,
2013-01-06 16:54:00,32.2,21.0,30.35,North,0,0.0,0.0,63,0.00,,,0.00,WUHU21623XXSP,2013-01-06 22:54:00,
2013-01-06 16:59:00,31.8,21.0,30.35,North,0,0.0,0.0,64,0.00,,,0.00,WUHU21623XXSP,2013-01-06 22:59:00,
2013-01-06 17:04:00,31.6,20.8,30.35,North,0,0.0,0.0,64,0.00,,,0.00,WUHU21623XXSP,2013-01-06 23:04:00,
2013-01-06 17:09:00,30.9,20.1,30.35,North,0,0.0,0.0,64,0.00,,,0.00,WUHU21623XXSP,2013-01-06 23:09:00,
2013-01-06 17:14:00,30.7,20.5,30.35,North,0,0.0,0.0,65,0.00,,,0.00,WUHU21623XXSP,2013-01-06 23:14:00,
2013-01-06 17:19:00,30.6,20.1,30.35,North,0,0.0,0.0,65,0.00,,,0.00,WUHU21623XXSP,2013-01-06 23:19:00,
2013-01-06 17:24:00,30.0,20.0,30.35,North,0,0.0,0.0,66,0.00,,,0.00,WUHU21623XXSP,2013-01-06 23:24:00,
2013-01-06 17:29:00,29.8,20.0,30.35,North,0,0.0,0.0,66,0.00,,,0.00,WUHU21623XXSP,2013-01-06 23:29:00,
2013-01-06 17:34:00,29.7,20.0,30.35,North,0,0.0,0.0,67,0.00,,,0.00,WUHU21623XXSP,2013-01-06 23:34:00,
2013-01-06 17:39:00,29.3,19.7,30.35,North,0,0.0,0.0,67,0.00,,,0.00,WUHU21623XXSP,2013-01-06 23:39:00,
2013-01-06 17:44:00,29.1,19.9,30.35,North,0,0.0,0.0,68,0.00,,,0.00,WUHU21623XXSP,2013-01-06 23:44:00,
2013-01-06 17:49:00,28.8,19.5,30.35,North,0,0.0,0.0,68,0.00,,,0.00,WUHU21623XXSP,2013-01-06 23:49:00,
2013-01-06 17:54:00,28.6,19.4,30.35,North,0,0.0,0.0,68,0.00,,,0.00,WUHU21623XXSP,2013-01-06 23:54:00,
2013-01-06 17:59:00,28.2,19.0,30.35,North,0,0.0,0.0,68,0.00,,,0.00,WUHU21623XXSP,2013-01-06 23:59:00,
2013-01-06 18:04:00,28.0,19.2,30.36,North,0,0.0,0.0,69,0.00,,,0.00,WUHU21623XXSP,2013-01-07 00:04:00,
2013-01-06 18:09:00,27.7,18.9,30.36,North,0,0.0,0.0,69,0.00,,,0.00,WUHU21623XXSP,2013-01-07 00:09:00,
2013-01-06 18:14:00,27.7,18.9,30.36,North,0,0.0,0.0,69,0.00,,,0.00,WUHU21623XXSP,2013-01-07 00:14:00,
2013-01-06 18:19:00,27.3,18.9,30.36,North,0,0.0,0.0,70,0.00,,,0.00,WUHU21623XXSP,2013-01-07 00:19:00,
2013-01-06 18:24:00,27.1,18.7,30.36,North,0,0.0,0.0,70,0.00,,,0.00,WUHU21623XXSP,2013-01-07 00:24:00,
2013-01-06 18:29:00,27.0,18.8,30.36,North,0,0.0,0.0,71,0.00,,,0.00,WUHU21623XXSP,2013-01-07 00:29:00,
2013-01-06 18:34:00,26.8,18.6,30.36,North,0,0.0,0.0,71,0.00,,,0.00,WUHU21623XXSP,2013-01-07 00:34:00,
2013-01-06 18:39:00,26.4,18.6,30.36,North,0,0.0,0.0,72,0.00,,,0.00,WUHU21623XXSP,2013-01-07 00:39:00,
2013-01-06 18:44:00,26.4,18.6,30.36,North,0,0.0,0.0,72,0.00,,,0.00,WUHU21623XXSP,2013-01-07 00:44:00,
2013-01-06 18:49:00,26.2,18.4,30.36,North,0,0.0,0.0,72,0.00,,,0.00,WUHU21623XXSP,2013-01-07 00:49:00,
2013-01-06 18:54:00,26.1,18.2,30.36,North,0,0.0,0.0,72,0.00,,,0.00,WUHU21623XXSP,2013-01-07 00:54:00,
2013-01-06 18:59:00,25.9,18.0,30.37,North,0,0.0,0.0,72,0.00,,,0.00,WUHU21623XXSP,2013-01-07 00:59:00,
2013-01-06 19:04:00,25.7,18.2,30.37,North,0,0.0,0.0,73,0.00,,,0.00,WUHU21623XXSP,2013-01-07 01:04:00,
2013-01-06 19:09:00,25.5,18.0,30.37,North,0,0.0,0.0,73,0.00,,,0.00,WUHU21623XXSP,2013-01-07 01:09:00,
2013-01-06 19:14:00,25.3,18.1,30.37,North,0,0.0,0.0,74,0.00,,,0.00,WUHU21623XXSP,2013-01-07 01:14:00,
2013-01-06 19:19:00,25.3,18.1,30.37,North,0,0.0,0.0,74,0.00,,,0.00,WUHU21623XXSP,2013-01-07 01:19:00,
2013-01-06 19:24:00,25.0,17.8,30.37,North,0,0.0,0.0,74,0.00,,,0.00,WUHU21623XXSP,2013-01-07 01:24:00,
2013-01-06 19:29:00,24.8,17.8,30.37,North,0,0.0,0.0,75,0.00,,,0.00,WUHU21623XXSP,2013-01-07 01:29:00,
2013-01-06 19:34:00,24.6,17.8,30.36,North,0,0.0,0.0,75,0.00,,,0.00,WUHU21623XXSP,2013-01-07 01:34:00,
2013-01-06 19:39:00,24.4,17.6,30.37,North,0,0.0,0.0,75,0.00,,,0.00,WUHU21623XXSP,2013-01-07 01:39:00,
2013-01-06 19:44:00,24.4,17.6,30.36,North,0,0.0,0.0,75,0.00,,,0.00,WUHU21623XXSP,2013-01-07 01:44:00,
2013-01-06 19:49:00,24.1,17.3,30.36,North,0,0.0,0.0,75,0.00,,,0.00,WUHU21623XXSP,2013-01-07 01:49:00,
2013-01-06 19:54:00,23.9,17.3,30.36,North,0,0.0,0.0,76,0.00,,,0.00,WUHU21623XXSP,2013-01-07 01:54:00,
2013-01-06 19:59:00,23.9,17.4,30.36,North,0,0.0,0.0,76,0.00,,,0.00,WUHU21623XXSP,2013-01-07 01:59:00,
2013-01-06 20:04:00,23.7,17.2,30.37,North,0,0.0,0.0,76,0.00,,,0.00,WUHU21623XXSP,2013-01-07 02:04:00,
2013-01-06 20:09:00,23.5,17.2,30.36,North,0,0.0,0.0,76,0.00,,,0.00,WUHU21623XXSP,2013-01-07 02:09:00,
2013-01-06 20:14:00,23.5,17.4,30.36,North,0,0.0,0.0,77,0.00,,,0.00,WUHU21623XXSP,2013-01-07 02:14:00,
2013-01-06 20:19:00,23.5,17.4,30.36,North,0,0.0,0.0,77,0.00,,,0.00,WUHU21623XXSP,2013-01-07 02:19:00,
2013-01-06 20:24:00,23.4,17.2,30.36,North,0,0.0,0.0,77,0.00,,,0.00,WUHU21623XXSP,2013-01-07 02:24:00,
2013-01-06 20:29:00,23.2,17.3,30.36,North,0,0.0,0.0,78,0.00,,,0.00,WUHU21623XXSP,2013-01-07 02:29:00,
2013-01-06 20:34:00,23.2,17.3,30.36,North,0,0.0,0.0,78,0.00,,,0.00,WUHU21623XXSP,2013-01-07 02:34:00,
2013-01-06 20:39:00,23.0,17.2,30.36,North,0,0.0,0.0,78,0.00,,,0.00,WUHU21623XXSP,2013-01-07 02:39:00,
2013-01-06 20:44:00,23.0,17.2,30.36,North,0,0.0,0.0,79,0.00,,,0.00,WUHU21623XXSP,2013-01-07 02:44:00,
2013-01-06 20:49:00,22.8,17.3,30.36,North,0,0.0,0.0,79,0.00,,,0.00,WUHU21623XXSP,2013-01-07 02:49:00,
2013-01-06 20:54:00,22.8,17.3,30.36,North,0,0.0,0.0,78,0.00,,,0.00,WUHU21623XXSP,2013-01-07 02:54:00,
2013-01-06 20:59:00,22.6,17.1,30.36,North,0,0.0,0.0,79,0.00,,,0.00,WUHU21623XXSP,2013-01-07 02:59:00,
2013-01-06 21:04:00,22.6,17.1,30.36,North,0,0.0,0.0,79,0.00,,,0.00,WUHU21623XXSP,2013-01-07 03:04:00,
2013-01-06 21:09:00,22.5,16.9,30.36,North,0,0.0,0.0,79,0.00,,,0.00,WUHU21623XXSP,2013-01-07 03:09:00,
2013-01-06 21:14:00,22.3,17.1,30.36,North,0,0.0,0.0,80,0.00,,,0.00,WUHU21623XXSP,2013-01-07 03:14:00,
2013-01-06 21:19:00,22.1,16.9,30.36,North,0,0.0,0.0,80,0.00,,,0.00,WUHU21623XXSP,2013-01-07 03:19:00,
2013-01-06 21:24:00,22.1,16.9,30.36,North,0,0.0,0.0,80,0.00,,,0.00,WUHU21623XXSP,2013-01-07 03:24:00,
2013-01-06 21:29:00,22.1,16.9,30.36,North,0,0.0,0.0,80,0.00,,,0.00,WUHU21623XXSP,2013-01-07 03:29:00,
2013-01-06 21:34:00,21.9,16.7,30.36,North,0,0.0,0.0,80,0.00,,,0.00,WUHU21623XXSP,2013-01-07 03:34:00,
2013-01-06 21:39:00,21.9,16.7,30.36,North,0,0.0,0.0,80,0.00,,,0.00,WUHU21623XXSP,2013-01-07 03:39:00,
2013-01-06 21:44:00,21.7,16.5,30.36,North,0,0.0,0.0,80,0.00,,,0.00,WUHU21623XXSP,2013-01-07 03:44:00,
2013-01-06 21:49:00,21.7,16.8,30.36,North,0,0.0,0.0,81,0.00,,,0.00,WUHU21623XXSP,2013-01-07 03:49:00,
2013-01-06 21:54:00,21.7,16.8,30.37,North,0,0.0,0.0,81,0.00,,,0.00,WUHU21623XXSP,2013-01-07 03:54:00,
2013-01-06 21:59:00,21.6,16.6,30.37,North,0,0.0,0.0,81,0.00,,,0.00,WUHU21623XXSP,2013-01-07 03:59:00,
2013-01-06 22:05:00,21.4,16.6,30.37,North,0,0.0,0.0,81,0.00,,,0.00,WUHU21623XXSP,2013-01-07 04:05:00,
2013-01-06 22:10:00,21.4,16.4,30.36,North,0,0.0,0.0,81,0.00,,,0.00,WUHU21623XXSP,2013-01-07 04:10:00,
2013-01-06 22:15:00,21.4,16.4,30.36,North,0,0.0,0.0,81,0.00,,,0.00,WUHU21623XXSP,2013-01-07 04:15:00,
2013-01-06 22:20:00,21.4,16.7,30.36,North,0,0.0,0.0,82,0.00,,,0.00,WUHU21623XXSP,2013-01-07 04:20:00,
2013-01-06 22:25:00,21.4,16.7,30.36,North,0,0.0,0.0,82,0.00,,,0.00,WUHU21623XXSP,2013-01-07 04:25:00,
2013-01-06 22:30:00,21.0,16.3,30.36,North,0,0.0,0.0,82,0.00,,,0.00,WUHU21623XXSP,2013-01-07 04:30:00,
2013-01-06 22:35:00,21.0,16.3,30.36,North,0,0.0,0.0,82,0.00,,,0.00,WUHU21623XXSP,2013-01-07 04:35:00,
2013-01-06 22:40:00,21.0,16.3,30.36,North,0,0.0,0.0,82,0.00,,,0.00,WUHU21623XXSP,2013-01-07 04:40:00,
2013-01-06 22:45:00,21.0,16.3,30.36,North,0,0.0,0.0,82,0.00,,,0.00,WUHU21623XXSP,2013-01-07 04:45:00,
2013-01-06 22:50:00,20.8,16.2,30.36,North,0,0.0,0.0,82,0.00,,,0.00,WUHU21623XXSP,2013-01-07 04:50:00,
2013-01-06 22:55:00,20.8,16.2,30.36,North,0,0.0,0.0,82,0.00,,,0.00,WUHU21623XXSP,2013-01-07 04:55:00,
2013-01-06 23:00:00,20.8,16.2,30.36,North,0,0.0,0.0,82,0.00,,,0.00,WUHU21623XXSP,2013-01-07 05:00:00,
2013-01-06 23:03:00,20.8,16.2,30.36,North,0,0.0,0.0,82,0.00,,,0.00,WUHU21623XXSP,2013-01-07 05:03:00,
2013-01-06 23:08:00,20.5,15.8,30.36,North,0,0.0,0.0,82,0.00,,,0.00,WUHU21623XXSP,2013-01-07 05:08:00,
2013-01-06 23:13:00,20.5,15.8,30.36,North,0,0.0,0.0,82,0.00,,,0.00,WUHU21623XXSP,2013-01-07 05:13:00,
2013-01-06 23:18:00,20.5,15.8,30.36,North,0,0.0,0.0,82,0.00,,,0.00,WUHU21623XXSP,2013-01-07 05:18:00,
2013-01-06 23:23:00,20.5,16.1,30.36,North,0,0.0,0.0,83,0.00,,,0.00,WUHU21623XXSP,2013-01-07 05:23:00,
2013-01-06 23:28:00,20.5,16.1,30.36,North,0,0.0,0.0,83,0.00,,,0.00,WUHU21623XXSP,2013-01-07 05:28:00,
2013-01-06 23:33:00,20.5,16.1,30.36,North,0,0.0,0.0,83,0.00,,,0.00,WUHU21623XXSP,2013-01-07 05:33:00,
2013-01-06 23:38:00,20.3,16.1,30.36,North,0,0.0,0.0,83,0.00,,,0.00,WUHU21623XXSP,2013-01-07 05:38:00,
2013-01-06 23:43:00,20.3,15.9,30.36,North,0,0.0,0.0,83,0.00,,,0.00,WUHU21623XXSP,2013-01-07 05:43:00,
2013-01-06 23:48:00,20.3,15.9,30.36,North,0,0.0,0.0,83,0.00,,,0.00,WUHU21623XXSP,2013-01-07 05:48:00,
2013-01-06 23:53:00,20.1,15.7,30.35,North,0,0.0,0.0,83,0.00,,,0.00,WUHU21623XXSP,2013-01-07 05:53:00,
2013-01-06 23:58:00,20.1,15.7,30.36,North,0,0.0,0.0,83,0.00,,,0.00,WUHU21623XXSP,2013-01-07 05:58:00,